星链-3055 (STARLINK-3055 )

导读 | 星芒AI

STARLINK-3055 是 SpaceX 星链计划中的一颗低轨通信卫星,属于第 30 批发射的星链卫星群。该卫星旨在为全球用户提供高速互联网服务,尤其在偏远和网络覆盖不足的地区。它运行在约 550 公里的轨道高度,采用先进的通信技术,支持高带宽和低延迟数据传输。作为星链星座的一部分,STARLINK-3055 有助于构建更完善的全球卫星互联网网络。

基本信息
目录编号:
49137
目录名称:
STARLINK-3055
国际标识:
2021-082H
轨道中心:
EARTH
卫星名称:
星链-3055
卫星全名:
星链-3055 (STARLINK-3055 )
卫星状态:
在轨 (已飞行1557 天)
发射日期:
2021-09-14 UTC
国别 :
美国 (US)
星等 :
--
轨道信息
数据来源 国际轨道数据 AOE轨道数据
星历时间 2025-12-19T02:58:34+0800
21小时前
查看轨道信息
2025-12-16T14:00:00+0800
3天前
查看轨道信息
半长轴 6952.688km 6952.677km
偏心率 0.0003144 0.0001458
轨道倾角 70.000° 70.003°
近地点辐角 269.652° 300.906°
升交点赤经 118.959° 125.357°
平近点角 90.427° 46.078°
近地点 572.367km 573.528km
远地点 576.739km 575.556km
周期 96.159分钟 96.159分钟
每日圈数 14.975236 14.975271
详细信息
固有亮度:
5
最大亮度:
2.5
卫星平台:
Starlink v1.5
覆盖范围:
全球
运营商:
太空探索技术公司
运营商所在国:
美国
制造商(研发单位):
太空探索技术公司
制造商所在国:
美国
使用方式:
暂无
卫星简介
星链(Starlink)计划是由太空探索技术公司(SpaceX)提出的一个巨型低轨卫星互联网星座项目,计划在2019年至2024年间在太空搭建由约1.2万颗卫星组成的“星链”网络,其中1584颗将部署在地球上空550千米处的近地轨道,并从2020年开始工作。该卫星仍在工作。
2D轨道图
3D轨道图
轨道高度分析图
轨道倾角分析图
轨道综合分析图
查看轨道综合分析图